Wind_Speed
8 8 7 7 7 7 7 7 7 7 7 7 7 7 7 7 6 6 6 6 5 5 5 5 5 3 2 1 1 0 0 1 2 1 1 2 2 2 3 2 3 3 3
7 7 7 7 7 7 7 7 7 7 7 7 7 6 6 6 6 6 6 6 5 4 4 4 5 4 2 1 0 1 1 2 2 2 2 2 2 2 2 3 3 3 3
6 7 7 6 6 7 7 6 7 8 8 8 7 6 6 6 6 6 6 5 4 3 3 4 4 3 2 1 1 1 1 1 2 3 3 2 2 2 3 3 3 3 3
7 7 7 7 6 7 7 6 6 6 7 7 6 6 5 5 5 4 4 5 3 3 3 2 2 2 2 1 1 1 1 2 2 3 3 3 3 3 4 4 4 4 4
7 7 7 7 7 7 7 7 7 6 6 6 6 6 5 5 4 4 4 4 3 3 2 2 1 1 1 1 1 1 1 2 3 2 2 3 3 3 4 4 4 4 4
8 8 8 8 8 8 8 7 8 7 6 6 6 5 5 4 4 4 4 3 3 2 2 2 2 1 2 2 2 2 2 2 2 2 2 2 2 3 3 4 4 4 5
8 8 9 9 9 9 9 8 8 7 6 5 4 4 4 4 4 3 4 3 3 2 2 2 2 2 2 2 3 3 2 2 3 2 2 2 2 3 3 4 4 4 5
8 9 9 10 10 10 9 8 7 7 6 5 4 4 3 3 3 4 3 3 3 2 2 2 2 2 2 2 2 3 3 3 3 3 3 3 3 3 4 4 5 5 5
10 9 10 10 10 9 9 8 7 6 5 5 5 4 3 3 4 4 3 3 3 3 2 2 2 2 2 2 2 3 3 4 4 4 4 4 3 4 4 5 5 5 5
11 11 11 11 10 9 9 8 7 6 5 5 5 5 4 4 4 3 3 3 2 2 3 3 3 2 2 3 3 3 3 4 5 5 4 4 4 5 5 5 5 5 6
11 11 11 11 10 9 9 8 8 6 5 5 4 4 4 4 4 3 3 2 2 2 2 2 2 2 1 2 2 3 3 4 5 5 5 4 4 5 5 5 5 5 5
11 10 10 10 10 9 9 8 8 6 6 6 5 5 5 5 4 4 4 3 2 2 2 2 2 2 2 2 2 2 3 4 4 4 4 4 4 4 5 5 5 5 5
11 11 10 10 10 10 9 9 8 7 7 7 7 6 5 5 5 4 4 4 3 2 2 2 2 2 2 2 2 2 3 4 4 4 4 4 4 4 5 6 6 6 6
11 10 10 10 10 9 9 8 8 8 8 7 7 6 5 5 4 4 4 4 4 3 3 3 3 3 3 2 2 2 3 3 4 4 4 4 4 5 5 6 7 7 7
10 10 10 10 9 9 8 8 7 7 7 6 6 6 5 4 4 4 4 4 4 4 3 3 3 3 3 2 2 2 3 3 3 4 4 4 5 5 6 6 6 6 6
9 9 9 8 8 8 8 7 6 6 6 6 6 6 5 5 5 4 4 4 4 4 3 3 3 3 2 3 2 3 3 3 3 3 3 3 4 5 6 6 5 5 6
8 8 8 7 7 7 7 6 6 5 5 5 5 5 6 5 5 5 4 4 4 4 3 3 3 3 3 3 3 3 4 4 4 3 3 3 4 5 5 6 6 6 8
7 7 7 7 6 6 6 6 5 5 5 5 5 5 5 5 5 5 5 4 5 4 4 4 4 3 3 4 4 4 5 5 4 4 4 4 4 5 6 6 7 8 9
6 7 7 6 6 6 6 5 5 5 5 5 5 5 5 4 5 5 5 6 6 6 5 5 4 4 5 5 5 5 5 5 5 5 5 5 5 6 7 8 8 9 10
6 6 6 6 6 6 6 5 5 5 5 5 5 5 5 6 6 6 6 7 7 6 7 7 6 6 6 6 6 6 6 6 6 7 7 7 8 8 8 8 9 9 10
5 5 5 6 6 6 6 5 5 5 6 5 5 5 6 6 6 6 6 6 7 7 7 7 6 6 6 6 6 7 6 7 7 8 8 9 9 9 10 9 10 10 11
4 5 5 5 5 5 5 5 5 5 5 5 5 5 6 6 7 7 7 7 7 7 7 8 7 6 6 7 7 7 8 8 8 9 10 10 10 11 11 11 11 11 11
4 4 5 5 5 5 4 4 4 5 5 6 6 6 6 6 6 6 6 6 7 7 7 8 8 7 7 7 8 8 9 9 9 9 10 11 12 12 12 12 12 12 12
3 4 4 4 4 4 4 5 5 6 6 6 7 7 6 6 6 7 7 7 8 8 8 9 9 8 8 8 8 9 10 10 10 11 11 12 13 13 13 13 13 13 13
4 5 5 5 5 5 5 6 6 7 7 7 7 8 7 7 7 7 8 9 9 9 9 10 9 10 9 9 10 11 11 12 12 13 13 13 13 13 13 13 13 13 14
5 6 6 6 6 6 6 7 8 8 8 8 8 9 9 9 9 9 9 9 10 10 10 10 11 11 11 11 11 12 12 13 13 14 14 13 14 14 14 14 14 14 15
Wind_Direction
79 80 79 82 81 86 94 107 111 111 107 104 100 93 89 81 77 74 76 73 68 52 45 49 58 77 89 85 110 184 268 230 203 196 218 238 242 232 238 241 237 230 212
80 80 75 73 74 80 89 101 113 114 109 108 105 95 85 78 73 71 69 66 67 60 47 54 66 72 70 66 210 245 262 260 248 250 240 248 243 234 239 241 236 226 221
79 80 77 75 77 82 90 101 105 111 109 103 99 94 85 77 72 70 68 58 60 70 63 59 59 69 68 40 337 302 274 284 264 243 236 240 244 226 232 247 232 224 224
78 77 75 74 79 84 89 99 106 110 108 98 92 89 84 80 71 62 52 41 42 46 54 44 39 44 31 358 342 320 273 263 262 250 243 248 255 245 241 244 240 237 232
79 76 75 78 80 85 91 102 106 106 109 99 87 85 82 75 65 51 39 36 31 25 18 2 356 3 2 335 328 296 277 285 281 262 252 262 256 251 246 248 249 248 239
80 77 76 78 83 88 96 103 106 104 107 100 83 85 78 70 56 45 36 26 15 359 348 339 334 311 319 316 280 271 271 281 298 285 278 274 255 258 260 259 260 259 252
83 80 80 81 85 90 96 99 103 103 98 89 76 79 70 58 44 33 26 17 3 352 352 338 321 328 326 311 271 274 275 286 285 290 285 272 270 272 277 267 258 259 254
84 84 86 85 86 92 96 95 99 98 92 87 79 72 56 42 29 23 20 16 13 6 343 341 327 308 300 291 270 279 274 278 280 291 275 270 267 275 277 273 266 264 262
84 84 86 88 86 90 93 91 93 95 90 81 72 59 50 43 29 22 27 25 20 14 3 335 311 311 303 280 273 273 269 272 278 277 272 273 268 275 276 275 275 267 265
82 82 83 86 83 86 89 87 84 84 79 69 58 49 45 36 23 18 23 24 19 7 359 339 323 309 288 272 270 265 260 264 269 272 279 275 268 268 269 273 273 267 261
81 80 79 82 83 84 86 85 84 76 70 60 51 47 40 34 34 36 38 34 29 11 353 328 322 328 310 275 269 262 257 260 269 276 284 280 273 267 271 276 268 264 259
78 79 78 78 81 84 85 81 79 78 69 56 50 50 52 51 48 47 46 48 36 22 4 333 308 318 301 274 269 257 252 252 268 281 279 283 280 275 270 271 271 267 264
76 79 80 83 81 82 81 78 74 71 65 60 56 53 53 55 53 51 55 55 45 24 359 338 317 320 312 265 256 259 252 265 273 274 273 281 283 279 269 268 274 274 269
80 82 82 82 82 79 75 72 69 67 64 61 53 48 48 49 50 47 46 43 34 17 353 331 319 324 312 291 284 268 269 279 281 273 276 283 282 279 276 275 274 272 273
80 81 83 80 76 72 70 73 71 67 63 59 52 49 43 37 38 35 32 19 7 355 349 337 328 333 333 315 296 280 273 284 287 280 279 283 280 276 277 280 284 280 278
78 79 76 76 71 68 65 66 66 62 55 48 45 44 36 29 29 22 15 4 358 347 338 336 329 323 329 333 311 280 275 285 283 287 283 281 278 282 286 288 282 284 283
71 72 69 69 62 59 57 58 56 53 45 37 31 29 25 20 14 9 4 360 354 344 333 324 322 325 317 321 313 289 283 295 290 286 287 288 287 292 290 289 288 288 286
62 62 61 63 53 48 49 47 41 35 29 24 19 16 15 15 15 9 0 351 345 338 326 313 315 310 306 300 301 295 298 294 289 283 279 285 293 295 290 289 288 288 291
57 59 56 52 44 39 40 40 36 31 23 17 12 11 10 12 13 5 358 356 350 345 336 314 300 295 296 294 296 299 299 293 287 288 286 286 290 298 296 292 289 289 292
54 56 55 50 39 35 35 33 32 30 26 21 19 17 15 11 3 354 348 352 352 344 341 332 305 298 296 296 299 298 301 299 287 286 287 288 292 296 296 292 289 291 291
51 52 46 40 36 34 31 30 28 21 20 19 14 8 4 1 357 355 352 352 351 351 350 341 323 316 313 301 298 298 299 302 296 294 294 289 291 295 295 293 288 288 290
39 44 41 33 29 23 20 19 15 9 7 7 4 356 352 349 347 347 352 353 347 346 345 341 327 315 312 305 297 295 301 301 299 297 296 294 293 296 294 292 288 289 287
21 25 23 19 14 8 2 355 350 347 347 352 351 345 342 340 338 334 334 338 333 330 330 330 322 312 310 309 302 300 302 300 296 298 298 298 298 297 296 295 292 289 289
352 352 357 360 359 356 352 345 342 341 338 335 337 334 332 328 323 319 318 320 317 315 316 316 314 312 306 304 302 302 302 300 299 297 297 296 296 296 294 296 294 288 285
328 330 333 334 333 330 332 331 331 333 328 324 326 328 321 316 316 313 312 312 310 308 309 309 309 311 307 304 301 301 301 299 298 296 295 294 295 295 294 294 293 292 289
310 315 316 319 316 315 319 323 325 323 318 317 321 321 315 310 310 309 306 304 305 304 305 307 306 308 308 306 303 299 297 298 297 296 295 293 293 295 296 296 294 293 292
Height
5871 5871 5871 5870 5870 5870 5870 5871 5872 5873 5874 5875 5876 5876 5877 5878 5878 5879 5879 5880 5880 5881 5881 5881 5880 5880 5881 5882 5883 5884 5884 5885 5885 5886 5886 5886 5886 5887 5887 5887 5888 5888 5889
5871 5871 5871 5870 5870 5870 5871 5871 5872 5874 5875 5876 5877 5877 5878 5879 5879 5880 5880 5880 5880 5881 5882 5881 5881 5882 5882 5883 5883 5884 5884 5885 5885 5885 5886 5886 5886 5886 5886 5887 5888 5888 5888
5872 5871 5871 5871 5870 5870 5871 5872 5873 5874 5875 5876 5877 5878 5878 5879 5880 5880 5880 5881 5881 5882 5882 5882 5882 5882 5883 5883 5883 5884 5884 5884 5884 5885 5885 5886 5886 5886 5886 5887 5887 5888 5888
5872 5872 5871 5870 5869 5869 5870 5871 5873 5874 5876 5877 5878 5878 5879 5879 5880 5880 5881 5881 5881 5882 5882 5883 5883 5883 5883 5883 5883 5884 5884 5884 5885 5885 5885 5885 5886 5886 5886 5886 5887 5887 5887
5872 5872 5871 5869 5868 5868 5869 5871 5873 5875 5876 5877 5878 5879 5879 5880 5880 5881 5881 5881 5882 5882 5882 5882 5882 5883 5883 5883 5883 5884 5884 5884 5884 5884 5885 5885 5885 5885 5886 5886 5886 5886 5886
5873 5872 5870 5869 5867 5868 5869 5872 5874 5876 5877 5878 5879 5879 5880 5880 5881 5881 5881 5882 5882 5882 5882 5883 5882 5883 5883 5883 5883 5884 5884 5884 5884 5884 5884 5885 5885 5885 5885 5885 5885 5886 5886
5874 5873 5871 5869 5868 5869 5871 5873 5875 5876 5877 5878 5879 5879 5880 5880 5881 5881 5881 5881 5882 5882 5882 5882 5882 5882 5882 5882 5883 5883 5883 5884 5884 5884 5884 5884 5884 5884 5884 5884 5885 5885 5885
5875 5875 5873 5872 5871 5872 5873 5875 5877 5878 5879 5879 5879 5880 5880 5880 5881 5881 5881 5881 5881 5881 5881 5882 5882 5882 5882 5882 5883 5883 5883 5883 5883 5883 5883 5883 5884 5884 5884 5884 5884 5884 5884
5877 5876 5876 5875 5875 5875 5876 5877 5878 5879 5880 5880 5880 5880 5880 5880 5880 5880 5880 5880 5880 5881 5881 5881 5881 5881 5881 5882 5882 5882 5883 5883 5883 5883 5883 5883 5883 5883 5883 5883 5883 5883 5883
5879 5878 5878 5878 5878 5878 5878 5879 5879 5880 5880 5881 5881 5881 5880 5880 5880 5880 5880 5880 5880 5880 5881 5881 5881 5881 5881 5881 5881 5882 5882 5882 5882 5882 5882 5882 5882 5882 5882 5882 5882 5882 5882
5881 5880 5880 5880 5880 5880 5880 5880 5881 5881 5881 5881 5881 5881 5880 5880 5879 5879 5878 5879 5879 5880 5880 5880 5881 5880 5881 5880 5880 5881 5881 5881 5881 5882 5881 5881 5881 5881 5881 5881 5881 5881 5881
5883 5882 5882 5882 5882 5882 5882 5882 5882 5883 5882 5882 5882 5881 5881 5880 5879 5879 5878 5878 5879 5880 5880 5880 5880 5880 5880 5880 5880 5880 5880 5880 5881 5881 5881 5881 5880 5880 5880 5880 5880 5880 5880
5884 5884 5883 5883 5884 5884 5884 5884 5884 5884 5884 5883 5883 5882 5881 5881 5880 5879 5879 5879 5879 5880 5880 5880 5880 5880 5879 5879 5879 5879 5879 5880 5880 5880 5880 5880 5880 5879 5879 5880 5879 5879 5879
5886 5885 5885 5885 5885 5885 5885 5885 5885 5885 5885 5884 5883 5883 5882 5881 5881 5880 5880 5880 5880 5880 5879 5879 5879 5879 5879 5879 5879 5879 5879 5879 5879 5879 5879 5879 5879 5878 5878 5878 5878 5878 5878
5887 5887 5887 5887 5887 5887 5887 5886 5886 5886 5886 5885 5884 5883 5883 5882 5882 5881 5881 5880 5880 5880 5879 5879 5879 5879 5879 5878 5878 5878 5878 5878 5878 5878 5878 5878 5878 5878 5878 5877 5877 5877 5877
5889 5888 5888 5888 5888 5888 5888 5888 5887 5887 5886 5886 5885 5884 5884 5883 5882 5881 5881 5880 5880 5880 5879 5879 5878 5878 5878 5878 5878 5878 5877 5877 5877 5877 5877 5877 5877 5877 5877 5876 5876 5876 5876
5890 5890 5889 5889 5889 5889 5889 5889 5888 5888 5887 5886 5886 5885 5884 5883 5882 5882 5881 5881 5880 5879 5879 5878 5878 5878 5878 5878 5877 5877 5877 5877 5877 5877 5876 5876 5876 5876 5875 5875 5874 5874 5874
5891 5891 5890 5890 5891 5890 5890 5889 5889 5888 5888 5887 5886 5885 5884 5884 5883 5882 5881 5881 5880 5879 5878 5878 5878 5877 5877 5877 5876 5876 5876 5876 5876 5876 5876 5875 5875 5875 5874 5874 5873 5873 5872
5892 5892 5891 5891 5891 5891 5891 5890 5889 5889 5888 5887 5886 5886 5885 5884 5883 5882 5881 5880 5880 5879 5878 5877 5877 5876 5876 5876 5876 5875 5875 5875 5875 5875 5875 5874 5874 5873 5873 5872 5871 5871 5870
5893 5893 5892 5892 5892 5891 5891 5890 5889 5889 5888 5887 5887 5886 5885 5884 5883 5882 5881 5880 5879 5879 5877 5877 5876 5876 5875 5875 5875 5875 5874 5874 5874 5873 5873 5873 5872 5871 5871 5870 5869 5869 5868
5894 5893 5893 5892 5892 5891 5890 5890 5889 5889 5888 5887 5886 5886 5885 5884 5883 5882 5881 5880 5879 5878 5877 5876 5875 5874 5874 5874 5874 5873 5873 5872 5872 5872 5871 5871 5870 5869 5869 5868 5867 5866 5865
5894 5894 5893 5893 5892 5891 5891 5890 5889 5889 5888 5887 5886 5885 5884 5883 5882 5881 5881 5880 5879 5878 5876 5875 5875 5874 5873 5873 5873 5872 5871 5871 5870 5870 5869 5868 5868 5867 5866 5865 5864 5863 5862
5895 5894 5893 5892 5891 5891 5890 5890 5889 5888 5887 5886 5885 5884 5883 5883 5882 5881 5880 5879 5878 5877 5876 5875 5874 5873 5872 5871 5871 5870 5870 5869 5869 5868 5867 5866 5865 5864 5863 5861 5860 5860 5859
5895 5894 5893 5892 5891 5891 5890 5889 5888 5887 5886 5885 5884 5883 5883 5882 5881 5880 5879 5878 5877 5876 5875 5874 5873 5872 5871 5870 5869 5868 5867 5867 5866 5865 5864 5863 5862 5860 5859 5858 5857 5856 5855
5894 5894 5893 5892 5891 5890 5889 5888 5887 5886 5885 5884 5883 5882 5881 5880 5879 5878 5877 5876 5875 5874 5873 5872 5871 5870 5869 5868 5867 5866 5864 5864 5862 5862 5861 5860 5858 5857 5856 5855 5853 5852 5851
5893 5892 5892 5891 5890 5889 5888 5887 5886 5885 5884 5883 5882 5881 5880 5879 5878 5877 5876 5875 5874 5872 5871 5870 5869 5868 5866 5865 5864 5863 5862 5861 5860 5858 5857 5856 5855 5854 5852 5851 5850 5848 5847